VA3DLF Weather Reports


time (UTC)temp
C
wind
direction
speed
KPH
gust
KPH
rain 1hr
cm
rain 24hr
cm
rain mn
cm
humidity
%
barometer
mb
20190618051020 13 20 0.0 0.0 0.00 0.00 0.00
20190618050015 13 20 0.0 0.0 0.00 0.00 0.00
20190618045516 13 20 0.0 0.0 0.00 0.00 0.00
20190618045013 13 20 0.0 0.0 0.00 0.25 0.00
20190618044514 13 20 0.0 0.0 0.00 0.25 0.00
20190618044014 14 20 0.0 0.0 0.00 0.25 0.00
20190618043012 15 20 0.0 0.0 0.00 0.25 0.00
20190618042513 15 20 0.0 0.0 0.00 0.25 0.00
20190618042011 15 20 0.0 0.0 0.00 0.25 0.00
20190618041511 15 20 0.0 0.0 0.00 0.25 0.00
20190618041012 15 20 0.0 0.0 0.00 0.25 0.00
20190618040510 16 20 0.0 0.0 0.00 0.25 0.00
20190618035509 16 20 1.6 0.0 0.00 0.25 0.00
20190618035007 16 25 1.6 1.6 0.00 0.25 0.00
20190618034508 16 107 0.0 0.0 0.00 0.25 0.00
20190618034009 16 107 0.0 0.0 0.00 0.25 0.00
20190618033007 16 107 0.0 0.0 0.00 0.25 0.00
20190618032508 16 107 0.0 0.0 0.00 0.25 0.00
20190618031006 16 107 0.0 0.0 0.00 0.25 0.00
20190618030507 16 107 0.0 0.0 0.00 0.25 0.00
20190618030005 16 107 0.0 0.0 0.00 0.25 0.00
20190618025505 16 107 0.0 0.0 0.00 0.25 0.00
20190618025003 16 107 0.0 0.0 0.00 0.25 0.00
20190618024504 17 107 0.0 0.0 0.00 0.25 0.00
20190618024004 17 107 0.0 0.0 0.00 0.25 0.00
20190618023501 16 107 0.0 0.0 0.00 0.25 0.00
20190618023002 17 107 0.0 0.0 0.00 0.25 0.00
20190618022502 17 107 0.0 0.0 0.00 0.25 0.00
20190618022000 17 107 0.0 0.0 0.00 0.25 0.00
20190618021501 16 107 0.0 0.0 0.00 0.25 0.00
20190618020500 17 107 0.0 0.0 0.00 0.25 0.00
20190618020000 17 107 0.0 0.0 0.00 0.25 0.00
20190618014459 16 107 0.0 0.0 0.00 0.25 0.00
20190618013958 16 107 0.0 0.0 0.00 0.25 0.00
20190618012956 16 160 0.0 3.2 0.00 0.25 0.00
20190618012457 17 200 0.0 0.0 0.00 0.25 0.00
20190618011955 17 200 0.0 0.0 0.00 0.25 0.00
20190618011455 17 200 0.0 0.0 0.00 0.25 0.00
20190618010956 17 200 0.0 0.0 0.00 0.25 0.00
20190618005954 17 200 0.0 0.0 0.00 0.25 0.00
20190618004953 18 200 0.0 0.0 0.00 0.25 0.00
20190618003953 18 200 0.0 0.0 0.00 0.25 0.00
20190618002951 20 200 0.0 0.0 0.00 0.25 0.00
20190618002451 20 200 0.0 0.0 0.00 0.25 0.00
20190618001949 21 200 0.0 0.0 0.00 0.25 0.00
20190618001450 21 200 0.0 0.0 0.00 0.25 0.00
20190618000448 20 200 0.0 0.0 0.00 0.25 0.00
20190617235948 21 200 0.0 0.0 0.00 0.25 0.00
20190617235449 21 200 0.0 0.0 0.00 0.25 0.00
20190617234947 21 200 0.0 0.0 0.00 0.25 0.00
20190617234446 22 205 3.2 3.2 0.00 0.25 0.00
20190617233947 23 245 3.2 1.6 0.00 0.25 0.00
20190617233445 23 245 6.4 3.2 0.00 0.25 0.00
20190617232446 23 238 6.4 6.4 0.00 0.25 0.00
20190617231942 23 197 1.6 1.6 0.00 0.25 0.00
20190617231443 22 297 3.2 3.2 0.00 0.25 0.00
20190617230441 22 174 6.4 8.0 0.00 0.25 0.00
20190617225942 22 191 6.4 4.8 0.00 0.25 0.00
20190617225442 23 253 6.4 8.0 0.00 0.25 0.00
20190617223436 22 211 11.3 6.4 0.00 0.25 0.00
20190617221935 22 243 8.0 9.7 0.00 0.25 0.00
20190617221436 22 242 8.0 3.2 0.00 0.25 0.00
20190617220434 22 252 8.0 4.8 0.00 0.25 0.00
20190617215934 22 252 9.7 3.2 0.00 0.25 0.00
20190617215435 22 217 8.0 12.9 0.00 0.25 0.00
20190617214933 22 264 6.4 6.4 0.00 0.25 0.00
20190617214433 22 208 4.8 6.4 0.00 0.25 0.00
20190617213935 22 215 6.4 6.4 0.00 0.25 0.00
20190617213432 22 238 8.0 4.8 0.00 0.25 0.00
20190617212932 22 231 8.0 14.5 0.00 0.25 0.00
20190617211930 23 307 6.4 6.4 0.00 0.25 0.00
20190617210931 23 231 8.0 8.0 0.00 0.25 0.00
20190617205929 22 246 6.4 8.0 0.00 0.25 0.00
20190617205430 22 180 9.7 12.9 0.00 0.25 0.00
20190617204927 23 169 8.0 9.7 0.00 0.25 0.00
20190617204428 22 243 9.7 6.4 0.00 0.25 0.00
20190617203929 23 294 6.4 8.0 0.00 0.25 0.00
20190617203426 23 302 8.0 3.2 0.00 0.25 0.00
20190617202927 22 248 6.4 8.0 0.00 0.25 0.00
20190617202428 23 212 8.0 11.3 0.00 0.25 0.00
20190617201925 22 236 11.3 8.0 0.00 0.25 0.00
20190617201426 22 226 9.7 8.0 0.00 0.25 0.00
20190617195924 22 200 6.4 12.9 0.00 0.25 0.00
20190617195424 22 162 9.7 9.7 0.00 0.25 0.00
20190617194922 22 235 9.7 8.0 0.00 0.25 0.00
20190617194420 22 205 8.0 12.9 0.00 0.25 0.00
20190617193920 23 188 6.4 12.9 0.00 0.25 0.00
20190617193418 23 143 3.2 3.2 0.00 0.25 0.00
20190617192919 23 65 0.0 3.2 0.00 0.25 0.00
20190617192419 23 300 3.2 0.0 0.00 0.25 0.00
20190617191917 23 287 1.6 4.8 0.00 0.25 0.00
20190617191418 22 214 9.7 6.4 0.00 0.25 0.00
20190617190918 23 215 11.3 9.7 0.00 0.25 0.00
20190617190416 22 219 6.4 8.0 0.00 0.25 0.00
20190617185917 22 183 8.0 9.7 0.00 0.25 0.00
20190617185417 23 255 3.2 8.0 0.00 0.25 0.00
20190617184415 22 238 4.8 9.7 0.00 0.25 0.00
20190617183916 22 141 12.9 8.0 0.00 0.25 0.00
20190617182915 22 96 4.8 1.6 0.00 0.25 0.00
20190617182415 22 191 8.0 8.0 0.00 0.25 0.00
20190617181913 22 142 8.0 8.0 0.00 0.25 0.00
20190617181413 22 224 9.7 8.0 0.00 0.25 0.00
20190617180914 22 224 1.6 1.6 0.00 0.25 0.00
20190617180411 22 242 4.8 3.2 0.00 0.25 0.00
20190617175912 23 239 8.0 3.2 0.00 0.25 0.00
20190617174910 22 293 9.7 9.7 0.00 0.25 0.00
20190617174411 22 159 4.8 8.0 0.00 0.25 0.00
20190617173911 23 89 6.4 1.6 0.00 0.25 0.00
20190617173410 23 200 1.6 6.4 0.00 0.25 0.00
20190617172909 22 298 6.4 3.2 0.00 0.25 0.00
20190617172410 22 100 8.0 3.2 0.00 0.25 0.00
20190617171407 22 217 8.0 6.4 0.00 0.25 0.00
20190617170908 22 139 4.8 4.8 0.00 0.25 0.00
20190617165905 22 82 4.8 6.4 0.00 0.25 0.00
20190617165406 22 44 8.0 9.7 0.00 0.25 0.00
20190617164404 22 338 3.2 4.8 0.00 0.25 0.00
20190617163905 21 72 8.0 3.2 0.00 0.25 0.00
20190617163402 21 342 4.8 4.8 0.00 0.25 0.00
20190617162903 22 48 4.8 4.8 0.00 0.25 0.00
20190617162404 22 132 6.4 3.2 0.00 0.25 0.00
20190617161902 21 188 8.0 9.7 0.00 0.25 0.00
20190617161402 22 328 4.8 4.8 0.00 0.25 0.00
20190617160903 21 312 9.7 4.8 0.00 0.25 0.00
20190617155901 22 145 9.7 8.0 0.00 0.25 0.00
20190617155402 22 271 3.2 1.6 0.00 0.25 0.00
20190617154400 21 17 6.4 11.3 0.00 0.25 0.00
20190617152859 21 89 6.4 6.4 0.00 0.25 0.00
20190617152400 21 60 4.8 4.8 0.00 0.25 0.00
20190617151858 20 190 8.0 11.3 0.00 0.25 0.00
20190617151359 20 165 4.8 4.8 0.00 0.25 0.00
20190617150859 20 129 3.2 3.2 0.00 0.25 0.00
20190617150357 20 163 4.8 4.8 0.00 0.25 0.00
20190617145858 20 10 3.2 1.6 0.00 0.25 0.00
20190617145358 20 111 3.2 0.0 0.00 0.25 0.00
20190617144856 20 105 3.2 4.8 0.00 0.25 0.00
20190617143856 20 83 1.6 4.8 0.00 0.25 0.00
20190617143354 20 302 6.4 6.4 0.00 0.25 0.00
20190617142855 20 217 8.0 8.0 0.00 0.25 0.00
20190617142356 20 255 3.2 4.8 0.00 0.25 0.00
20190617141854 20 328 3.2 1.6 0.00 0.25 0.00
20190617141355 20 205 8.0 6.4 0.00 0.25 0.00
20190617140855 20 160 9.7 4.8 0.00 0.25 0.00
20190617140353 20 293 4.8 4.8 0.00 0.25 0.00
20190617135853 20 315 8.0 9.7 0.00 0.25 0.00
20190617134853 19 200 8.0 11.3 0.00 0.25 0.00
20190617134353 19 158 4.8 8.0 0.00 0.25 0.00
20190617133852 19 66 6.4 4.8 0.00 0.25 0.00
20190617133350 18 132 9.7 9.7 0.00 0.25 0.00
20190617132851 18 110 6.4 6.4 0.00 0.25 0.00
20190617132352 18 149 6.4 3.2 0.00 0.25 0.00
20190617131850 18 169 4.8 6.4 0.00 0.25 0.00
20190617131351 18 198 9.7 8.0 0.00 0.25 0.00
20190617130851 18 184 6.4 8.0 0.00 0.25 0.00
20190617130349 18 132 9.7 6.4 0.00 0.25 0.00
20190617125350 17 143 8.0 4.8 0.00 0.25 0.00
20190617124847 17 65 6.4 4.8 0.00 0.25 0.00
20190617124347 17 111 6.4 6.4 0.00 0.25 0.00
20190617123847 17 128 4.8 3.2 0.00 0.25 0.00
20190617123345 17 150 4.8 4.8 0.00 0.25 0.00
20190617122845 17 165 6.4 8.0 0.00 0.25 0.00
20190617122003 16 82 4.8 4.8 0.00 0.25 0.00
20190617121844 16 82 4.8 4.8 0.00 0.25 0.00
20190617120845 16 159 1.6 6.4 0.00 0.25 0.00
20190617114840 16 113 1.6 8.0 0.00 0.25 0.00
20190617114340 15 170 4.8 4.8 0.00 0.25 0.00
20190617112838 14 52 4.8 3.2 0.00 0.25 0.00
20190617111837 14 60 6.4 4.8 0.00 0.25 0.00
20190617110336 12 183 1.6 1.6 0.00 0.25 0.00
20190617105837 12 45 0.0 3.2 0.00 0.25 0.00
20190617105336 12 42 3.2 3.2 0.00 0.25 0.00
20190617104834 12 70 3.2 4.8 0.00 0.25 0.00
20190617104335 11 41 4.8 3.2 0.00 0.25 0.00
20190617103835 11 42 4.8 4.8 0.00 0.25 0.00
20190617103332 11 30 4.8 4.8 0.00 0.25 0.00
20190617102905 11 30 6.4 6.4 0.00 0.25 0.00
20190617102833 11 30 6.4 6.4 0.00 0.25 0.00
20190617100328 10 30 4.8 4.8 0.00 0.25 0.00
20190617100055 10 45 6.4 6.4 0.00 0.25 0.00
20190617095828 10 45 6.4 6.4 0.00 0.25 0.00
20190617094826 10 38 4.8 4.8 0.00 0.25 0.00
20190617093825 10 39 4.8 6.4 0.00 0.25 0.00
20190617092824 9 35 6.4 4.8 0.00 0.25 0.00
20190617092324 9 38 6.4 6.4 0.00 0.25 0.00
20190617091322 8 32 3.2 3.2 0.00 0.25 0.00
20190617090822 8 25 3.2 3.2 0.00 0.25 0.00
20190617090319 9 32 3.2 3.2 0.00 0.25 0.00
20190617085820 9 34 4.8 3.2 0.00 0.25 0.00
20190617085321 9 41 3.2 3.2 0.00 0.25 0.00
20190617084818 9 41 4.8 4.8 0.00 0.25 0.00
20190617083820 9 27 4.8 4.8 0.00 0.25 0.00
20190617082817 9 31 4.8 4.8 0.00 0.25 0.00
20190617082318 8 38 4.8 4.8 0.00 0.25 0.00
20190617081815 8 23 4.8 4.8 0.00 0.25 0.00
20190617081706 8 31 3.2 3.2 0.00 0.25 0.00
20190617081315 8 31 3.2 3.2 0.00 0.25 0.00
20190617080815 8 27 3.2 3.2 0.00 0.25 0.00
20190617080313 9 27 3.2 3.2 0.00 0.25 0.00
20190617075313 9 28 4.8 4.8 0.00 0.25 0.00
20190617074811 9 27 3.2 3.2 0.00 0.25 0.00
20190617074311 9 31 3.2 3.2 0.00 0.25 0.00
20190617073309 9 30 3.2 3.2 0.00 0.25 0.00
20190617072810 9 49 3.2 3.2 0.00 0.25 0.00
20190617072310 9 49 3.2 3.2 0.00 0.25 0.00
20190617070810 9 20 3.2 3.2 0.00 0.25 0.00
20190617064805 9 31 3.2 3.2 0.00 0.25 0.00
20190617064305 9 28 3.2 3.2 0.00 0.25 0.00
20190617063806 9 27 4.8 3.2 0.00 0.25 0.00
20190617063303 9 45 1.6 1.6 0.00 0.25 0.00
20190617062804 9 44 3.2 1.6 0.00 0.25 0.00
20190617062304 9 49 1.6 1.6 0.00 0.25 0.00
20190617061801 9 53 1.6 1.6 0.00 0.25 0.00
20190617060300 9 25 0.0 0.0 0.00 0.25 0.00
20190617055800 9 25 0.0 0.0 0.00 0.25 0.00
20190617055301 9 25 0.0 0.0 0.00 0.25 0.00
20190617054759 9 34 1.6 0.0 0.00 0.25 0.00
20190617054259 9 46 3.2 1.6 0.00 0.25 0.00
20190617053257 10 28 1.6 1.6 0.00 0.25 0.00
20190617052758 10 24 1.6 1.6 0.00 0.25 0.00
20190617051752 10 31 3.2 1.6 0.00 0.25 0.00